Weather History for Toledo Metcalf, OH

Change the Weather History Date:

Friday, May 4, 2012

  Actual Average (KTOL) Record (KTOL)
Temperature  
Mean Temperature 67 °F 56 °F  
Max Temperature 79 °F 67 °F 89 °F (1895)
Min Temperature 57 °F 45 °F 25 °F (2005)
Degree Days  
Heating Degree Days 0 10  
Month to date heating degree days 40  
Since 1 July heating degree days 5942  
Cooling Degree Days 2 1  
Month to date cooling degree days 1  
Year to date cooling degree days 9  
Growing Degree Days 17 (Base 50)    
Moisture  
Dew Point 62 °F    
Average Humidity 84    
Maximum Humidity 94    
Minimum Humidity 64    
Precipitation  
Precipitation 0.77 in 0.11 in 1.27 in (1965)
Month to date precipitation 0.44  
Year to date precipitation 10.23  
Snow  
Snow 0.00 in 0.00 in - ()
Month to date snowfall 0.0  
Since 1 July snowfall 37.5  
Snow Depth -    
Sea Level Pressure  
Sea Level Pressure 29.95 in    
Wind  
Wind Speed 7 mph (East)    
Max Wind Speed 22 mph    
Max Gust Speed 37 mph    
Visibility 7 miles    
Events Rain    
T = Trace of Precipitation, MM = Missing Value Source: NWS Daily Summary

Daily Weather History Graph

Daily Weather History Graph

Search for Another Location

Airport:

Trip Planner

Search our weather history database for the weather conditions in past years. The results will help you decide how hot, cold, wet, or windy it might be!

Date:

Astronomy

May. 04, 2012 Rise Set
Actual Time 6:26 AM EDT 8:35 PM EDT
Civil Twilight 5:55 AM EDT 9:06 PM EDT
Nautical Twilight 5:18 AM EDT 9:43 PM EDT
Astronomical Twilight 4:37 AM EDT 10:25 PM EDT
Moon 7:11 PM EDT (5/4) 5:07 AM EDT (5/4)
Length of Visible Light 15h 10m
Length of Day
14h 09m
Waxing Gibbous, 97% of the Moon is Illuminated
May 4
Waxing Gibbous
May 5
Full
May 12
Last Quarter
May 20
New
May 28
First Quarter

Hourly Weather History & Observations

Time (EDT) Temp. Dew Point Humidity Pressure Visibility Wind Dir Wind Speed Gust Speed Precip Events Conditions
12:53 AM 73.9 °F 63.0 °F 68% 29.95 in 10.0 mi SW 9.2 mph - N/A   Clear
1:53 AM 73.0 °F 63.0 °F 71% 29.94 in 10.0 mi SW 9.2 mph - N/A   Clear
2:53 AM 69.1 °F 63.0 °F 81% 29.94 in 10.0 mi SW 6.9 mph - N/A   Clear
3:53 AM 66.9 °F 62.1 °F 84% 29.95 in 10.0 mi Calm Calm - N/A   Clear
4:53 AM 64.9 °F 61.0 °F 87% 29.96 in 10.0 mi Calm Calm - N/A   Clear
5:53 AM 63.0 °F 61.0 °F 93% 29.96 in 9.0 mi Calm Calm - N/A   Clear
6:53 AM 61.0 °F 59.0 °F 93% 29.95 in 8.0 mi SE 4.6 mph - N/A   Clear
7:53 AM 66.9 °F 61.0 °F 81% 29.95 in 10.0 mi SSW 6.9 mph - N/A   Clear
8:53 AM 69.1 °F 61.0 °F 75% 29.94 in 10.0 mi SSW 9.2 mph - N/A   Partly Cloudy
9:53 AM 72.0 °F 62.1 °F 71% 29.96 in 10.0 mi WSW 12.7 mph - N/A   Clear
10:53 AM 75.0 °F 63.0 °F 66% 29.95 in 10.0 mi SSW 9.2 mph - N/A   Clear
11:53 AM 75.9 °F 63.0 °F 64% 29.96 in 10.0 mi SW 10.4 mph - N/A   Mostly Cloudy
12:53 PM 75.9 °F 64.9 °F 69% 29.95 in 10.0 mi WSW 11.5 mph - 0.00 in Rain Light Rain
1:04 PM 71.6 °F 66.2 °F 83% 29.97 in 1.8 mi West 13.8 mph - 0.08 in Rain Heavy Rain
1:13 PM 69.8 °F 64.4 °F 83% 29.96 in 0.8 mi South 21.9 mph 36.8 mph 0.29 in Rain Heavy Rain
1:20 PM 71.6 °F 60.8 °F 69% 29.96 in 1.0 mi Variable 3.5 mph 36.8 mph 0.37 in Rain Rain
1:24 PM 73.4 °F 60.8 °F 65% 29.96 in 2.5 mi Calm Calm - 0.37 in Rain Light Rain
1:31 PM 71.6 °F 62.6 °F 73% 29.95 in 10.0 mi NNE 4.6 mph - 0.37 in   Overcast
1:53 PM 73.0 °F 64.0 °F 73% 29.95 in 10.0 mi North 8.1 mph - 0.37 in   Overcast
2:53 PM 73.0 °F 66.9 °F 81% 29.95 in 10.0 mi East 10.4 mph - N/A   Mostly Cloudy
3:15 PM 66.2 °F 64.4 °F 94% 29.96 in 6.0 mi SSE 8.1 mph - 0.03 in Rain Light Rain
3:20 PM 66.2 °F 64.4 °F 94% 29.96 in 1.8 mi SE 6.9 mph - 0.10 in Rain Heavy Rain
3:29 PM 66.2 °F 64.4 °F 94% 29.95 in 4.0 mi ESE 9.2 mph - 0.11 in Rain Light Rain
3:40 PM 66.2 °F 62.6 °F 88% 29.95 in 1.8 mi ESE 8.1 mph - 0.23 in Rain Heavy Rain
3:53 PM 66.0 °F 64.0 °F 93% 29.94 in 4.0 mi ESE 5.8 mph - 0.29 in Rain Light Rain
4:21 PM 68.0 °F 64.4 °F 88% 29.92 in 2.5 mi Variable 5.8 mph - 0.10 in Rain Light Rain
4:28 PM 69.8 °F 64.4 °F 83% 29.92 in 10.0 mi NNE 5.8 mph - 0.10 in   Overcast
4:53 PM 70.0 °F 66.9 °F 90% 29.93 in 8.0 mi ESE 4.6 mph - 0.10 in   Overcast
5:53 PM 69.1 °F 66.0 °F 90% 29.92 in 9.0 mi Variable 3.5 mph - N/A   Overcast
6:53 PM 70.0 °F 66.0 °F 87% 29.92 in 10.0 mi East 4.6 mph - 0.01 in   Overcast
7:53 PM 70.0 °F 66.0 °F 87% 29.92 in 10.0 mi NE 3.5 mph - N/A   Mostly Cloudy
8:53 PM 64.9 °F 62.1 °F 90% 29.95 in 9.0 mi NE 9.2 mph 18.4 mph N/A   Partly Cloudy
9:07 PM 62.6 °F 60.8 °F 94% 29.97 in 7.0 mi ENE 10.4 mph - N/A   Mostly Cloudy
9:42 PM 60.8 °F 59.0 °F 94% 29.97 in 6.0 mi NE 11.5 mph - N/A   Partly Cloudy
9:53 PM 61.0 °F 59.0 °F 93% 29.97 in 6.0 mi NE 9.2 mph - N/A   Partly Cloudy
10:10 PM 62.6 °F 59.0 °F 88% 29.98 in 5.0 mi NE 8.1 mph - N/A   Mostly Cloudy
10:41 PM 60.8 °F 59.0 °F 94% 30.00 in 6.0 mi NE 8.1 mph - N/A   Overcast
10:53 PM 61.0 °F 57.9 °F 90% 29.99 in 7.0 mi NE 11.5 mph 17.3 mph N/A   Overcast
11:31 PM 59.0 °F 55.4 °F 88% 30.00 in 7.0 mi NE 9.2 mph - N/A   Overcast
11:53 PM 57.9 °F 55.9 °F 93% 29.99 in 8.0 mi NE 9.2 mph - N/A   Overcast